Location: Marseilles
(40.7010°N, 83.3930°W)
Time: 15:49:27
(UTC-04:00)

Cosmos 1459 Rocket - Visible Passes

Search period start: 28 April 2015 00:00
Search period end: 08 May 2015 00:00
Orbit: 939 x 999 km, 83.0° (Epoch: 27 April)

Date Brightness Start Highest point End Pass type
(mag) Time Alt. Az. Time Alt. Az. Time Alt. Az.
28 Apr 6.1 05:08:26 10° SE 05:13:24 27° E 05:18:36 10° NNE visible
29 Apr 5.1 05:30:48 10° SSE 05:36:39 47° E 05:42:40 10° NNE visible
30 Apr 6.9 04:14:24 10° E 04:15:41 11° E 04:17:27 10° ENE visible
30 Apr 4.2 05:53:50 10° S 06:00:02 83° E 06:06:22 10° N visible
01 May 6.3 04:34:28 10° SE 04:38:46 21° E 04:43:22 10° NE visible
02 May 5.5 04:56:26 10° SSE 05:01:58 36° E 05:07:42 10° NNE visible
03 May 4.5 05:19:10 10° S 05:25:17 64° E 05:31:33 10° NNE visible
04 May 6.5 04:00:48 10° ESE 04:04:10 16° E 04:07:53 10° NE visible
04 May 4.0 05:42:30 10° SSW 05:48:44 75° W 05:55:06 10° N visible
05 May 5.8 04:22:13 10° SE 04:27:19 28° E 04:32:38 10° NNE visible
06 May 4.9 04:44:38 10° SSE 04:50:34 49° E 04:56:40 10° NNE visible
07 May 6.6 03:27:46 10° E 03:29:35 12° E 03:31:51 10° ENE visible
07 May 4.1 05:07:42 10° S 05:13:58 86° E 05:20:21 10° N visible
